owner,sensor,date,latitude,longitude,vertical_datum,wind_speed,wind_to_direction,wind_speed_of_gust,qcFlag 
DISL,ioos:station:DISL:MBLA:1,2010-01-14T21:00:00Z,30.4367,-88.0117,14.2,2.82,134.9,-9999.0,'1111122,1111122,1111122' 
DISL,ioos:station:DISL:MBLA:1,2010-01-14T21:30:00Z,30.4367,-88.0117,14.2,6.8,140.4,-9999.0,'1111122,1111122,1111122' 
DISL,ioos:station:DISL:MBLA:1,2010-01-14T22:00:00Z,30.4367,-88.0117,14.2,5.72,128.2,-9999.0,'1111122,1111122,1111122' 
DISL,ioos:station:DISL:MBLA:1,2010-01-14T22:30:00Z,30.4367,-88.0117,14.2,5.3,128.9,-9999.0,'1111122,1111122,1111122' 
DISL,ioos:station:DISL:MBLA:1,2010-01-14T23:00:00Z,30.4367,-88.0117,14.2,6.27,114.6,-9999.0,'1111122,1111122,1111122' 
DISL,ioos:station:DISL:MBLA:1,2010-01-14T23:30:00Z,30.4367,-88.0117,14.2,5.56,110.7,-9999.0,'1111122,1111122,1111122' 
DISL,ioos:station:DISL:MBLA:1,2010-01-15T00:00:00Z,30.4367,-88.0117,14.2,5.44,107.6,-9999.0,'1111122,1111122,1111122' 
DISL,ioos:station:DISL:MBLA:1,2010-01-15T00:30:00Z,30.4367,-88.0117,14.2,4.23,116.9,-9999.0,'1111122,1111122,1111122' 
DISL,ioos:station:DISL:MBLA:1,2010-01-15T01:00:00Z,30.4367,-88.0117,14.2,4.09,107.3,-9999.0,'1111122,1111122,1111122' 
DISL,ioos:station:DISL:MBLA:1,2010-01-15T01:30:00Z,30.4367,-88.0117,14.2,4.16,89.1,-9999.0,'1111122,1111122,1111122' 
DISL,ioos:station:DISL:MBLA:1,2010-01-15T02:00:00Z,30.4367,-88.0117,14.2,4.91,89.5,-9999.0,'1111122,1111122,1111122' 
DISL,ioos:station:DISL:MBLA:1,2010-01-15T02:30:00Z,30.4367,-88.0117,14.2,4.24,80.7,-9999.0,'1111122,1111122,1111122' 
DISL,ioos:station:DISL:MBLA:1,2010-01-15T03:00:00Z,30.4367,-88.0117,14.2,5.22,74.9,-9999.0,'1111122,1111122,1111122' 
DISL,ioos:station:DISL:MBLA:1,2010-01-15T03:30:00Z,30.4367,-88.0117,14.2,5.15,71.8,-9999.0,'1111122,1111122,1111122' 
DISL,ioos:station:DISL:MBLA:1,2010-01-15T04:00:00Z,30.4367,-88.0117,14.2,5.0,69.45,-9999.0,'1111122,1111122,1111122' 
DISL,ioos:station:DISL:MBLA:1,2010-01-15T04:30:00Z,30.4367,-88.0117,14.2,3.82,65.69,-9999.0,'1111122,1111122,1111122' 
DISL,ioos:station:DISL:MBLA:1,2010-01-15T05:00:00Z,30.4367,-88.0117,14.2,4.23,42.01,-9999.0,'1111122,1111122,1111122' 
DISL,ioos:station:DISL:MBLA:1,2010-01-15T05:30:00Z,30.4367,-88.0117,14.2,4.22,47.94,-9999.0,'1111122,1111122,1111122' 
DISL,ioos:station:DISL:MBLA:1,2010-01-15T06:00:00Z,30.4367,-88.0117,14.2,4.06,61.96,-9999.0,'1111122,1111122,1111122' 
DISL,ioos:station:DISL:MBLA:1,2010-01-15T06:30:00Z,30.4367,-88.0117,14.2,4.56,67.51,-9999.0,'1111122,1111122,1111122' 
DISL,ioos:station:DISL:MBLA:1,2010-01-15T07:00:00Z,30.4367,-88.0117,14.2,5.37,56.6,-9999.0,'1111122,1111122,1111122' 
DISL,ioos:station:DISL:MBLA:1,2010-01-15T07:30:00Z,30.4367,-88.0117,14.2,3.8,42.29,-9999.0,'1111122,1111122,1111122' 
DISL,ioos:station:DISL:MBLA:1,2010-01-15T08:00:00Z,30.4367,-88.0117,14.2,6.06,50.08,-9999.0,'1111122,1111122,1111122' 
DISL,ioos:station:DISL:MBLA:1,2010-01-15T08:30:00Z,30.4367,-88.0117,14.2,7.5,60.75,-9999.0,'1111122,1111122,1111122' 
DISL,ioos:station:DISL:MBLA:1,2010-01-15T09:00:00Z,30.4367,-88.0117,14.2,8.33,63.32,-9999.0,'1111122,1111122,1111122' 
DISL,ioos:station:DISL:MBLA:1,2010-01-15T09:30:00Z,30.4367,-88.0117,14.2,7.77,66.58,-9999.0,'1111122,1111122,1111122' 
DISL,ioos:station:DISL:MBLA:1,2010-01-15T10:00:00Z,30.4367,-88.0117,14.2,7.24,61.93,-9999.0,'1111122,1111122,1111122' 
DISL,ioos:station:DISL:MBLA:1,2010-01-15T10:30:00Z,30.4367,-88.0117,14.2,6.17,63.54,-9999.0,'1111122,1111122,1111122' 
DISL,ioos:station:DISL:MBLA:1,2010-01-15T11:00:00Z,30.4367,-88.0117,14.2,7.97,65.92,-9999.0,'1111122,1111122,1111122' 
DISL,ioos:station:DISL:MBLA:1,2010-01-15T11:30:00Z,30.4367,-88.0117,14.2,8.8,64.3,-9999.0,'1111122,1111122,1111122' 
DISL,ioos:station:DISL:MBLA:1,2010-01-15T12:00:00Z,30.4367,-88.0117,14.2,9.11,62.06,-9999.0,'1111122,1111122,1111122' 
DISL,ioos:station:DISL:MBLA:1,2010-01-15T12:30:00Z,30.4367,-88.0117,14.2,8.61,73.7,-9999.0,'1111122,1111122,1111122' 
DISL,ioos:station:DISL:MBLA:1,2010-01-15T13:00:00Z,30.4367,-88.0117,14.2,8.73,69.89,-9999.0,'1111122,1111122,1111122' 
DISL,ioos:station:DISL:MBLA:1,2010-01-15T13:30:00Z,30.4367,-88.0117,14.2,9.09,54.89,-9999.0,'1111122,1111122,1111122' 
DISL,ioos:station:DISL:MBLA:1,2010-01-15T14:00:00Z,30.4367,-88.0117,14.2,8.64,61.23,-9999.0,'1111122,1111122,1111122' 
DISL,ioos:station:DISL:MBLA:1,2010-01-15T14:30:00Z,30.4367,-88.0117,14.2,8.17,48.42,-9999.0,'1111122,1111122,1111122' 
DISL,ioos:station:DISL:MBLA:1,2010-01-15T15:00:00Z,30.4367,-88.0117,14.2,7.06,54.03,-9999.0,'1111122,1111122,1111122' 
DISL,ioos:station:DISL:MBLA:1,2010-01-15T15:30:00Z,30.4367,-88.0117,14.2,7.57,61.51,-9999.0,'1111122,1111122,1111122' 
DISL,ioos:station:DISL:MBLA:1,2010-01-15T16:00:00Z,30.4367,-88.0117,14.2,7.5,62.72,-9999.0,'1111122,1111122,1111122' 
DISL,ioos:station:DISL:MBLA:1,2010-01-15T16:30:00Z,30.4367,-88.0117,14.2,6.46,48.21,-9999.0,'1111122,1111122,1111122' 
DISL,ioos:station:DISL:MBLA:1,2010-01-15T17:00:00Z,30.4367,-88.0117,14.2,6.15,28.97,-9999.0,'1111122,1111122,1111122' 
DISL,ioos:station:DISL:MBLA:1,2010-01-15T17:30:00Z,30.4367,-88.0117,14.2,5.58,22.39,-9999.0,'1111122,1111122,1111122' 
DISL,ioos:station:DISL:MBLA:1,2010-01-15T18:00:00Z,30.4367,-88.0117,14.2,4.89,2.928,-9999.0,'1111122,1111122,1111122' 
DISL,ioos:station:DISL:MBLA:1,2010-01-15T18:30:00Z,30.4367,-88.0117,14.2,4.95,9.11,-9999.0,'1111122,1111122,1111122' 
DISL,ioos:station:DISL:MBLA:1,2010-01-15T19:00:00Z,30.4367,-88.0117,14.2,4.76,1.635,-9999.0,'1111122,1111122,1111122' 
DISL,ioos:station:DISL:MBLA:1,2010-01-15T19:30:00Z,30.4367,-88.0117,14.2,4.83,5.459,-9999.0,'1111122,1111122,1111122' 
DISL,ioos:station:DISL:MBLA:1,2010-01-15T20:00:00Z,30.4367,-88.0117,14.2,3.17,21.11,-9999.0,'1111122,1111122,1111122' 
DISL,ioos:station:DISL:MBLA:1,2010-01-15T20:30:00Z,30.4367,-88.0117,14.2,3.76,128.6,-9999.0,'1111122,1111122,1111122' 
DISL,ioos:station:DISL:MBLA:1,2010-01-15T21:00:00Z,30.4367,-88.0117,14.2,6.39,88.2,-9999.0,'1111122,1111122,1111122' 
DISL,ioos:station:DISL:MBLA:1,2010-01-15T21:30:00Z,30.4367,-88.0117,14.2,6.09,87.6,-9999.0,'1111122,1111122,1111122' 
DISL,ioos:station:DISL:MBLA:1,2010-01-15T22:00:00Z,30.4367,-88.0117,14.2,4.04,105.7,-9999.0,'1111122,1111122,1111122' 
DISL,ioos:station:DISL:MBLA:1,2010-01-15T22:30:00Z,30.4367,-88.0117,14.2,6.49,109.5,-9999.0,'1111122,1111122,1111122' 
DISL,ioos:station:DISL:MBLA:1,2010-01-15T23:00:00Z,30.4367,-88.0117,14.2,7.25,84.7,-9999.0,'1111122,1111122,1111122' 
DISL,ioos:station:DISL:MBLA:1,2010-01-15T23:30:00Z,30.4367,-88.0117,14.2,6.72,67.41,-9999.0,'1111122,1111122,1111122' 
DISL,ioos:station:DISL:MBLA:1,2010-01-16T00:00:00Z,30.4367,-88.0117,14.2,6.15,50.71,-9999.0,'1111122,1111122,1111122' 
DISL,ioos:station:DISL:MBLA:1,2010-01-16T00:30:00Z,30.4367,-88.0117,14.2,5.27,61.2,-9999.0,'1111122,1111122,1111122' 
DISL,ioos:station:DISL:MBLA:1,2010-01-16T01:00:00Z,30.4367,-88.0117,14.2,6.04,70.1,-9999.0,'1111122,1111122,1111122' 
DISL,ioos:station:DISL:MBLA:1,2010-01-16T01:30:00Z,30.4367,-88.0117,14.2,6.14,57.79,-9999.0,'1111122,1111122,1111122' 
DISL,ioos:station:DISL:MBLA:1,2010-01-16T02:00:00Z,30.4367,-88.0117,14.2,6.33,47.85,-9999.0,'1111122,1111122,1111122' 
DISL,ioos:station:DISL:MBLA:1,2010-01-16T02:30:00Z,30.4367,-88.0117,14.2,5.49,41.2,-9999.0,'1111122,1111122,1111122' 
DISL,ioos:station:DISL:MBLA:1,2010-01-16T03:00:00Z,30.4367,-88.0117,14.2,6.28,40.83,-9999.0,'1111122,1111122,1111122' 
DISL,ioos:station:DISL:MBLA:1,2010-01-16T03:30:00Z,30.4367,-88.0117,14.2,3.41,35.92,-9999.0,'1111122,1111122,1111122' 
DISL,ioos:station:DISL:MBLA:1,2010-01-16T04:00:00Z,30.4367,-88.0117,14.2,4.52,19.44,-9999.0,'1111122,1111122,1111122' 
DISL,ioos:station:DISL:MBLA:1,2010-01-16T04:30:00Z,30.4367,-88.0117,14.2,4.8,27.37,-9999.0,'1111122,1111122,1111122' 
DISL,ioos:station:DISL:MBLA:1,2010-01-16T05:00:00Z,30.4367,-88.0117,14.2,6.71,31.41,-9999.0,'1111122,1111122,1111122' 
DISL,ioos:station:DISL:MBLA:1,2010-01-16T05:30:00Z,30.4367,-88.0117,14.2,7.65,24.64,-9999.0,'1111122,1111122,1111122' 
DISL,ioos:station:DISL:MBLA:1,2010-01-16T06:00:00Z,30.4367,-88.0117,14.2,7.29,26.74,-9999.0,'1111122,1111122,1111122' 
DISL,ioos:station:DISL:MBLA:1,2010-01-16T06:30:00Z,30.4367,-88.0117,14.2,8.26,60.4,-9999.0,'1111122,1111122,1111122' 
DISL,ioos:station:DISL:MBLA:1,2010-01-16T07:00:00Z,30.4367,-88.0117,14.2,12.41,83.7,-9999.0,'1111122,1111122,1111122' 
DISL,ioos:station:DISL:MBLA:1,2010-01-16T07:30:00Z,30.4367,-88.0117,14.2,15.95,92.6,-9999.0,'1111122,1111122,1111122' 
DISL,ioos:station:DISL:MBLA:1,2010-01-16T08:00:00Z,30.4367,-88.0117,14.2,15.87,102.5,-9999.0,'1111122,1111122,1111122' 
DISL,ioos:station:DISL:MBLA:1,2010-01-16T08:30:00Z,30.4367,-88.0117,14.2,19.22,104.4,-9999.0,'1111122,1111122,1111122' 
DISL,ioos:station:DISL:MBLA:1,2010-01-16T09:00:00Z,30.4367,-88.0117,14.2,16.14,114.6,-9999.0,'1111122,1111122,1111122' 
DISL,ioos:station:DISL:MBLA:1,2010-01-16T09:30:00Z,30.4367,-88.0117,14.2,16.71,117.6,-9999.0,'1111122,1111122,1111122' 
DISL,ioos:station:DISL:MBLA:1,2010-01-16T10:00:00Z,30.4367,-88.0117,14.2,19.26,114.7,-9999.0,'1111122,1111122,1111122' 
DISL,ioos:station:DISL:MBLA:1,2010-01-16T10:30:00Z,30.4367,-88.0117,14.2,17.25,112.3,-9999.0,'1111122,1111122,1111122' 
DISL,ioos:station:DISL:MBLA:1,2010-01-16T11:00:00Z,30.4367,-88.0117,14.2,15.19,109.8,-9999.0,'1111122,1111122,1111122' 
DISL,ioos:station:DISL:MBLA:1,2010-01-16T11:30:00Z,30.4367,-88.0117,14.2,15.21,111.4,-9999.0,'1111122,1111122,1111122' 
DISL,ioos:station:DISL:MBLA:1,2010-01-16T12:00:00Z,30.4367,-88.0117,14.2,14.73,109.6,-9999.0,'1111122,1111122,1111122' 
DISL,ioos:station:DISL:MBLA:1,2010-01-16T12:30:00Z,30.4367,-88.0117,14.2,12.42,100.6,-9999.0,'1111122,1111122,1111122' 
DISL,ioos:station:DISL:MBLA:1,2010-01-16T13:00:00Z,30.4367,-88.0117,14.2,9.14,77.5,-9999.0,'1111122,1111122,1111122' 
DISL,ioos:station:DISL:MBLA:1,2010-01-16T13:30:00Z,30.4367,-88.0117,14.2,9.9,71.8,-9999.0,'1111122,1111122,1111122' 
DISL,ioos:station:DISL:MBLA:1,2010-01-16T14:00:00Z,30.4367,-88.0117,14.2,9.46,79.1,-9999.0,'1111122,1111122,1111122' 
DISL,ioos:station:DISL:MBLA:1,2010-01-16T14:30:00Z,30.4367,-88.0117,14.2,7.56,80.0,-9999.0,'1111122,1111122,1111122' 
DISL,ioos:station:DISL:MBLA:1,2010-01-16T15:00:00Z,30.4367,-88.0117,14.2,5.72,43.61,-9999.0,'1111122,1111122,1111122' 
DISL,ioos:station:DISL:MBLA:1,2010-01-16T15:30:00Z,30.4367,-88.0117,14.2,6.72,348.2,-9999.0,'1111122,1111122,1111122' 
DISL,ioos:station:DISL:MBLA:1,2010-01-16T16:00:00Z,30.4367,-88.0117,14.2,8.3,18.29,-9999.0,'1111122,1111122,1111122' 
DISL,ioos:station:DISL:MBLA:1,2010-01-16T16:30:00Z,30.4367,-88.0117,14.2,8.57,18.7,-9999.0,'1111122,1111122,1111122' 
DISL,ioos:station:DISL:MBLA:1,2010-01-16T17:00:00Z,30.4367,-88.0117,14.2,8.43,28.53,-9999.0,'1111122,1111122,1111122' 
DISL,ioos:station:DISL:MBLA:1,2010-01-16T17:30:00Z,30.4367,-88.0117,14.2,7.96,64.86,-9999.0,'1111122,1111122,1111122' 
DISL,ioos:station:DISL:MBLA:1,2010-01-16T18:00:00Z,30.4367,-88.0117,14.2,9.07,67.13,-9999.0,'1111122,1111122,1111122' 
DISL,ioos:station:DISL:MBLA:1,2010-01-16T18:30:00Z,30.4367,-88.0117,14.2,5.96,85.7,-9999.0,'1111122,1111122,1111122' 
DISL,ioos:station:DISL:MBLA:1,2010-01-16T19:00:00Z,30.4367,-88.0117,14.2,9.2,95.2,-9999.0,'1111122,1111122,1111122' 
DISL,ioos:station:DISL:MBLA:1,2010-01-16T19:30:00Z,30.4367,-88.0117,14.2,9.02,102.4,-9999.0,'1111122,1111122,1111122' 
DISL,ioos:station:DISL:MBLA:1,2010-01-16T20:00:00Z,30.4367,-88.0117,14.2,12.02,115.0,-9999.0,'1111122,1111122,1111122' 
DISL,ioos:station:DISL:MBLA:1,2010-01-16T20:30:00Z,30.4367,-88.0117,14.2,13.09,129.1,-9999.0,'1111122,1111122,1111122' 
DISL,ioos:station:DISL:MBLA:1,2010-01-16T21:00:00Z,30.4367,-88.0117,14.2,11.79,137.2,-9999.0,'1111122,1111122,1111122' 
DISL,ioos:station:DISL:MBLA:1,2010-01-16T21:30:00Z,30.4367,-88.0117,14.2,10.08,129.9,-9999.0,'1111122,1111122,1111122' 
DISL,ioos:station:DISL:MBLA:1,2010-01-16T22:00:00Z,30.4367,-88.0117,14.2,7.96,131.9,-9999.0,'1111122,1111122,1111122' 
DISL,ioos:station:DISL:MBLA:1,2010-01-16T22:30:00Z,30.4367,-88.0117,14.2,4.9,144.9,-9999.0,'1111122,1111122,1111122' 
DISL,ioos:station:DISL:MBLA:1,2010-01-16T23:00:00Z,30.4367,-88.0117,14.2,4.42,150.8,-9999.0,'1111122,1111122,1111122' 
DISL,ioos:station:DISL:MBLA:1,2010-01-16T23:30:00Z,30.4367,-88.0117,14.2,6.83,169.2,-9999.0,'1111122,1111122,1111122' 
DISL,ioos:station:DISL:MBLA:1,2010-01-17T00:00:00Z,30.4367,-88.0117,14.2,6.79,177.6,-9999.0,'1111122,1111122,1111122' 
DISL,ioos:station:DISL:MBLA:1,2010-01-17T00:30:00Z,30.4367,-88.0117,14.2,7.3,171.1,-9999.0,'1111122,1111122,1111122' 
DISL,ioos:station:DISL:MBLA:1,2010-01-17T01:00:00Z,30.4367,-88.0117,14.2,8.41,169.1,-9999.0,'1111122,1111122,1111122' 
DISL,ioos:station:DISL:MBLA:1,2010-01-17T01:30:00Z,30.4367,-88.0117,14.2,10.12,183.4,-9999.0,'1111122,1111122,1111122' 
DISL,ioos:station:DISL:MBLA:1,2010-01-17T02:00:00Z,30.4367,-88.0117,14.2,7.64,178.8,-9999.0,'1111122,1111122,1111122' 
DISL,ioos:station:DISL:MBLA:1,2010-01-17T02:30:00Z,30.4367,-88.0117,14.2,8.31,183.8,-9999.0,'1111122,1111122,1111122' 
DISL,ioos:station:DISL:MBLA:1,2010-01-17T03:00:00Z,30.4367,-88.0117,14.2,8.5,193.7,-9999.0,'1111122,1111122,1111122' 
DISL,ioos:station:DISL:MBLA:1,2010-01-17T03:30:00Z,30.4367,-88.0117,14.2,11.34,228.2,-9999.0,'1111122,1111122,1111122' 
DISL,ioos:station:DISL:MBLA:1,2010-01-17T04:00:00Z,30.4367,-88.0117,14.2,9.67,239.3,-9999.0,'1111122,1111122,1111122' 
DISL,ioos:station:DISL:MBLA:1,2010-01-17T04:30:00Z,30.4367,-88.0117,14.2,5.97,225.2,-9999.0,'1111122,1111122,1111122' 
DISL,ioos:station:DISL:MBLA:1,2010-01-17T05:00:00Z,30.4367,-88.0117,14.2,7.82,218.5,-9999.0,'1111122,1111122,1111122' 
DISL,ioos:station:DISL:MBLA:1,2010-01-17T05:30:00Z,30.4367,-88.0117,14.2,6.34,221.1,-9999.0,'1111122,1111122,1111122' 
DISL,ioos:station:DISL:MBLA:1,2010-01-17T06:00:00Z,30.4367,-88.0117,14.2,5.9,220.0,-9999.0,'1111122,1111122,1111122' 
DISL,ioos:station:DISL:MBLA:1,2010-01-17T06:30:00Z,30.4367,-88.0117,14.2,7.21,225.0,-9999.0,'1111122,1111122,1111122' 
DISL,ioos:station:DISL:MBLA:1,2010-01-17T07:00:00Z,30.4367,-88.0117,14.2,10.74,224.7,-9999.0,'1111122,1111122,1111122' 
DISL,ioos:station:DISL:MBLA:1,2010-01-17T07:30:00Z,30.4367,-88.0117,14.2,10.28,222.1,-9999.0,'1111122,1111122,1111122' 
DISL,ioos:station:DISL:MBLA:1,2010-01-17T08:00:00Z,30.4367,-88.0117,14.2,9.55,230.5,-9999.0,'1111122,1111122,1111122' 
DISL,ioos:station:DISL:MBLA:1,2010-01-17T08:30:00Z,30.4367,-88.0117,14.2,11.0,241.7,-9999.0,'1111122,1111122,1111122' 
DISL,ioos:station:DISL:MBLA:1,2010-01-17T09:00:00Z,30.4367,-88.0117,14.2,11.34,239.0,-9999.0,'1111122,1111122,1111122' 
DISL,ioos:station:DISL:MBLA:1,2010-01-17T09:30:00Z,30.4367,-88.0117,14.2,12.06,235.5,-9999.0,'1111122,1111122,1111122' 
DISL,ioos:station:DISL:MBLA:1,2010-01-17T10:00:00Z,30.4367,-88.0117,14.2,11.33,236.8,-9999.0,'1111122,1111122,1111122' 
DISL,ioos:station:DISL:MBLA:1,2010-01-17T10:30:00Z,30.4367,-88.0117,14.2,9.76,233.7,-9999.0,'1111122,1111122,1111122' 
DISL,ioos:station:DISL:MBLA:1,2010-01-17T11:00:00Z,30.4367,-88.0117,14.2,9.98,239.9,-9999.0,'1111122,1111122,1111122' 
DISL,ioos:station:DISL:MBLA:1,2010-01-17T11:30:00Z,30.4367,-88.0117,14.2,9.85,234.0,-9999.0,'1111122,1111122,1111122' 
DISL,ioos:station:DISL:MBLA:1,2010-01-17T12:00:00Z,30.4367,-88.0117,14.2,8.92,233.8,-9999.0,'1111122,1111122,1111122' 
DISL,ioos:station:DISL:MBLA:1,2010-01-17T12:30:00Z,30.4367,-88.0117,14.2,13.68,244.8,-9999.0,'1111122,1111122,1111122' 
DISL,ioos:station:DISL:MBLA:1,2010-01-17T13:00:00Z,30.4367,-88.0117,14.2,12.39,248.2,-9999.0,'1111122,1111122,1111122' 
DISL,ioos:station:DISL:MBLA:1,2010-01-17T13:30:00Z,30.4367,-88.0117,14.2,13.03,248.5,-9999.0,'1111122,1111122,1111122' 
DISL,ioos:station:DISL:MBLA:1,2010-01-17T14:00:00Z,30.4367,-88.0117,14.2,12.38,249.7,-9999.0,'1111122,1111122,1111122' 
DISL,ioos:station:DISL:MBLA:1,2010-01-17T14:30:00Z,30.4367,-88.0117,14.2,9.53,246.4,-9999.0,'1111122,1111122,1111122' 
DISL,ioos:station:DISL:MBLA:1,2010-01-17T15:00:00Z,30.4367,-88.0117,14.2,11.34,252.2,-9999.0,'1111122,1111122,1111122' 
DISL,ioos:station:DISL:MBLA:1,2010-01-17T15:30:00Z,30.4367,-88.0117,14.2,9.31,257.1,-9999.0,'1111122,1111122,1111122' 
DISL,ioos:station:DISL:MBLA:1,2010-01-17T16:00:00Z,30.4367,-88.0117,14.2,9.02,266.0,-9999.0,'1111122,1111122,1111122' 
DISL,ioos:station:DISL:MBLA:1,2010-01-17T16:30:00Z,30.4367,-88.0117,14.2,9.5,271.0,-9999.0,'1111122,1111122,1111122' 
DISL,ioos:station:DISL:MBLA:1,2010-01-17T17:00:00Z,30.4367,-88.0117,14.2,9.88,267.5,-9999.0,'1111122,1111122,1111122' 
DISL,ioos:station:DISL:MBLA:1,2010-01-17T17:30:00Z,30.4367,-88.0117,14.2,9.38,275.0,-9999.0,'1111122,1111122,1111122' 
DISL,ioos:station:DISL:MBLA:1,2010-01-17T18:00:00Z,30.4367,-88.0117,14.2,10.16,277.9,-9999.0,'1111122,1111122,1111122' 
DISL,ioos:station:DISL:MBLA:1,2010-01-17T18:30:00Z,30.4367,-88.0117,14.2,10.83,283.2,-9999.0,'1111122,1111122,1111122' 
DISL,ioos:station:DISL:MBLA:1,2010-01-17T19:00:00Z,30.4367,-88.0117,14.2,10.5,290.8,-9999.0,'1111122,1111122,1111122' 
DISL,ioos:station:DISL:MBLA:1,2010-01-17T19:30:00Z,30.4367,-88.0117,14.2,10.07,284.1,-9999.0,'1111122,1111122,1111122' 
DISL,ioos:station:DISL:MBLA:1,2010-01-17T20:00:00Z,30.4367,-88.0117,14.2,11.3,286.7,-9999.0,'1111122,1111122,1111122' 
DISL,ioos:station:DISL:MBLA:1,2010-01-17T20:30:00Z,30.4367,-88.0117,14.2,11.66,281.6,-9999.0,'1111122,1111122,1111122' 
DISL,ioos:station:DISL:MBLA:1,2010-01-17T21:00:00Z,30.4367,-88.0117,14.2,10.08,279.4,-9999.0,'1111122,1111122,1111122' 
DISL,ioos:station:DISL:MBLA:1,2010-01-17T21:30:00Z,30.4367,-88.0117,14.2,9.24,281.3,-9999.0,'1111122,1111122,1111122' 
DISL,ioos:station:DISL:MBLA:1,2010-01-17T22:00:00Z,30.4367,-88.0117,14.2,6.8,280.6,-9999.0,'1111122,1111122,1111122' 
DISL,ioos:station:DISL:MBLA:1,2010-01-17T22:30:00Z,30.4367,-88.0117,14.2,6.59,280.8,-9999.0,'1111122,1111122,1111122' 
DISL,ioos:station:DISL:MBLA:1,2010-01-17T23:00:00Z,30.4367,-88.0117,14.2,6.77,274.6,-9999.0,'1111122,1111122,1111122' 
DISL,ioos:station:DISL:MBLA:1,2010-01-17T23:30:00Z,30.4367,-88.0117,14.2,5.88,262.0,-9999.0,'1111122,1111122,1111122' 
DISL,ioos:station:DISL:MBLA:1,2010-01-18T00:00:00Z,30.4367,-88.0117,14.2,5.96,257.4,-9999.0,'1111122,1111122,1111122' 
DISL,ioos:station:DISL:MBLA:1,2010-01-18T00:30:00Z,30.4367,-88.0117,14.2,6.96,271.3,-9999.0,'1111122,1111122,1111122' 
DISL,ioos:station:DISL:MBLA:1,2010-01-18T01:00:00Z,30.4367,-88.0117,14.2,5.97,268.9,-9999.0,'1111122,1111122,1111122' 
DISL,ioos:station:DISL:MBLA:1,2010-01-18T01:30:00Z,30.4367,-88.0117,14.2,6.17,273.4,-9999.0,'1111122,1111122,1111122' 
DISL,ioos:station:DISL:MBLA:1,2010-01-18T02:00:00Z,30.4367,-88.0117,14.2,5.54,280.9,-9999.0,'1111122,1111122,1111122' 
DISL,ioos:station:DISL:MBLA:1,2010-01-18T02:30:00Z,30.4367,-88.0117,14.2,4.93,289.1,-9999.0,'1111122,1111122,1111122' 
DISL,ioos:station:DISL:MBLA:1,2010-01-18T03:00:00Z,30.4367,-88.0117,14.2,5.23,296.5,-9999.0,'1111122,1111122,1111122' 
DISL,ioos:station:DISL:MBLA:1,2010-01-18T03:30:00Z,30.4367,-88.0117,14.2,6.34,304.3,-9999.0,'1111122,1111122,1111122' 
DISL,ioos:station:DISL:MBLA:1,2010-01-18T04:00:00Z,30.4367,-88.0117,14.2,8.38,319.4,-9999.0,'1111122,1111122,1111122' 
DISL,ioos:station:DISL:MBLA:1,2010-01-18T04:30:00Z,30.4367,-88.0117,14.2,6.82,341.3,-9999.0,'1111122,1111122,1111122' 
DISL,ioos:station:DISL:MBLA:1,2010-01-18T05:00:00Z,30.4367,-88.0117,14.2,8.13,338.9,-9999.0,'1111122,1111122,1111122' 
DISL,ioos:station:DISL:MBLA:1,2010-01-18T05:30:00Z,30.4367,-88.0117,14.2,6.44,322.2,-9999.0,'1111122,1111122,1111122' 
DISL,ioos:station:DISL:MBLA:1,2010-01-18T06:00:00Z,30.4367,-88.0117,14.2,5.3,339.5,-9999.0,'1111122,1111122,1111122' 
DISL,ioos:station:DISL:MBLA:1,2010-01-18T06:30:00Z,30.4367,-88.0117,14.2,1.93,308.9,-9999.0,'1111122,1111122,1111122' 
DISL,ioos:station:DISL:MBLA:1,2010-01-18T07:00:00Z,30.4367,-88.0117,14.2,2.31,326.3,-9999.0,'1111122,1111122,1111122' 
DISL,ioos:station:DISL:MBLA:1,2010-01-18T07:30:00Z,30.4367,-88.0117,14.2,2.24,331.7,-9999.0,'1111122,1111122,1111122' 
DISL,ioos:station:DISL:MBLA:1,2010-01-18T08:00:00Z,30.4367,-88.0117,14.2,2.53,314.5,-9999.0,'1111122,1111122,1111122' 
DISL,ioos:station:DISL:MBLA:1,2010-01-18T08:30:00Z,30.4367,-88.0117,14.2,3.4,314.2,-9999.0,'1111122,1111122,1111122' 
DISL,ioos:station:DISL:MBLA:1,2010-01-18T09:00:00Z,30.4367,-88.0117,14.2,2.84,302.6,-9999.0,'1111122,1111122,1111122' 
DISL,ioos:station:DISL:MBLA:1,2010-01-18T09:30:00Z,30.4367,-88.0117,14.2,2.22,295.2,-9999.0,'1111122,1111122,1111122' 
DISL,ioos:station:DISL:MBLA:1,2010-01-18T10:00:00Z,30.4367,-88.0117,14.2,3.02,278.6,-9999.0,'1111122,1111122,1111122' 
DISL,ioos:station:DISL:MBLA:1,2010-01-18T10:30:00Z,30.4367,-88.0117,14.2,3.39,267.5,-9999.0,'1111122,1111122,1111122' 
DISL,ioos:station:DISL:MBLA:1,2010-01-18T11:00:00Z,30.4367,-88.0117,14.2,2.23,258.5,-9999.0,'1111122,1111122,1111122' 
DISL,ioos:station:DISL:MBLA:1,2010-01-18T11:30:00Z,30.4367,-88.0117,14.2,2.36,275.1,-9999.0,'1111122,1111122,1111122' 
DISL,ioos:station:DISL:MBLA:1,2010-01-18T12:00:00Z,30.4367,-88.0117,14.2,1.97,281.5,-9999.0,'1111122,1111122,1111122' 
DISL,ioos:station:DISL:MBLA:1,2010-01-18T12:30:00Z,30.4367,-88.0117,14.2,1.29,269.9,-9999.0,'1111122,1111122,1111122' 
DISL,ioos:station:DISL:MBLA:1,2010-01-18T13:00:00Z,30.4367,-88.0117,14.2,1.33,294.8,-9999.0,'1111122,1111122,1111122' 
DISL,ioos:station:DISL:MBLA:1,2010-01-18T13:30:00Z,30.4367,-88.0117,14.2,1.22,302.2,-9999.0,'1111122,1111122,1111122' 
DISL,ioos:station:DISL:MBLA:1,2010-01-18T14:00:00Z,30.4367,-88.0117,14.2,0.74,313.6,-9999.0,'1111122,1111122,1111122' 
DISL,ioos:station:DISL:MBLA:1,2010-01-18T14:30:00Z,30.4367,-88.0117,14.2,1.33,321.0,-9999.0,'1111122,1111122,1111122' 
DISL,ioos:station:DISL:MBLA:1,2010-01-18T15:00:00Z,30.4367,-88.0117,14.2,1.24,309.4,-9999.0,'1111122,1111122,1111122' 
DISL,ioos:station:DISL:MBLA:1,2010-01-18T15:30:00Z,30.4367,-88.0117,14.2,0.7,294.0,-9999.0,'1111122,1111122,1111122' 
DISL,ioos:station:DISL:MBLA:1,2010-01-18T16:00:00Z,30.4367,-88.0117,14.2,0.02,256.7,-9999.0,'1111122,1111122,1111122' 
DISL,ioos:station:DISL:MBLA:1,2010-01-18T16:30:00Z,30.4367,-88.0117,14.2,0.0,0.0,-9999.0,'1114422,1114422,1111122' 
DISL,ioos:station:DISL:MBLA:1,2010-01-18T17:00:00Z,30.4367,-88.0117,14.2,0.92,165.6,-9999.0,'1111122,1111122,1111122' 
DISL,ioos:station:DISL:MBLA:1,2010-01-18T17:30:00Z,30.4367,-88.0117,14.2,0.36,126.5,-9999.0,'1111122,1111122,1111122' 
DISL,ioos:station:DISL:MBLA:1,2010-01-18T18:00:00Z,30.4367,-88.0117,14.2,0.54,137.2,-9999.0,'1111122,1111122,1111122' 
DISL,ioos:station:DISL:MBLA:1,2010-01-18T18:30:00Z,30.4367,-88.0117,14.2,2.4,186.3,-9999.0,'1111122,1111122,1111122' 
DISL,ioos:station:DISL:MBLA:1,2010-01-18T19:00:00Z,30.4367,-88.0117,14.2,2.46,202.3,-9999.0,'1111122,1111122,1111122' 
DISL,ioos:station:DISL:MBLA:1,2010-01-18T19:30:00Z,30.4367,-88.0117,14.2,4.3,191.4,-9999.0,'1111122,1111122,1111122' 
DISL,ioos:station:DISL:MBLA:1,2010-01-18T20:00:00Z,30.4367,-88.0117,14.2,5.28,196.9,-9999.0,'1111122,1111122,1111122' 
DISL,ioos:station:DISL:MBLA:1,2010-01-18T20:30:00Z,30.4367,-88.0117,14.2,5.03,211.6,-9999.0,'1111122,1111122,1111122' 
DISL,ioos:station:DISL:MBLA:1,2010-01-18T21:00:00Z,30.4367,-88.0117,14.2,5.14,213.7,-9999.0,'1111122,1111122,1111122' 
DISL,ioos:station:DISL:MBLA:1,2010-01-18T21:30:00Z,30.4367,-88.0117,14.2,5.53,208.1,-9999.0,'1111122,1111122,1111122' 
DISL,ioos:station:DISL:MBLA:1,2010-01-18T22:00:00Z,30.4367,-88.0117,14.2,4.62,205.0,-9999.0,'1111122,1111122,1111122' 
DISL,ioos:station:DISL:MBLA:1,2010-01-18T22:30:00Z,30.4367,-88.0117,14.2,4.69,211.5,-9999.0,'1111122,1111122,1111122' 
DISL,ioos:station:DISL:MBLA:1,2010-01-18T23:00:00Z,30.4367,-88.0117,14.2,4.85,217.0,-9999.0,'1111122,1111122,1111122' 
DISL,ioos:station:DISL:MBLA:1,2010-01-18T23:30:00Z,30.4367,-88.0117,14.2,5.0,220.1,-9999.0,'1111122,1111122,1111122' 
DISL,ioos:station:DISL:MBLA:1,2010-01-19T00:00:00Z,30.4367,-88.0117,14.2,4.02,225.0,-9999.0,'1111122,1111122,1111122' 
DISL,ioos:station:DISL:MBLA:1,2010-01-19T00:30:00Z,30.4367,-88.0117,14.2,3.5,230.4,-9999.0,'1111122,1111122,1111122' 